Regional Weather Roundup
Issued by NWS Boston, MA

Home | Current Version | Previous Version | Text Only | Print | Product List | Glossary On
Versions: 1 2 3 4 5 6 7 8 9 10 11 12 13 14 15 16 17 18 19 20 21 22 23 24 25 26 27 28 29 30 31 32 33 34 35 36 37 38 39 40 41 42 43 44 45 46 47 48 49 50
000
ASUS41 KBOX 242110
RWRBOX

REGIONAL WEATHER ROUNDUP
NATIONAL WEATHER SERVICE TAUNTON MA
500 PM EDT THU JUL 24 2014

NOTE:  "FAIR" INDICATES FEW OR NO CLOUDS BELOW 12,000 FEET WITH NO
SIGNIFICANT WEATHER AND/OR OBSTRUCTIONS TO VISIBILITY.  THE FOLLOWING
OBSERVATION LOCATIONS DO NOT REPORT PRESENT WEATHER...PROVINCETOWN...
SMITHFIELD...BLOCK ISLAND...KEENE...AND OXFORD.

MAZALL-242200-
EASTERN MASSACHUSETTS

CITY           SKY/WX    TMP DP  RH WIND       PRES   REMARKS
BOSTON         CLOUDY    68  61  78 SE6       29.84S
BEVERLY        CLOUDY    74  62  66 CALM      29.83S
LAWRENCE       CLOUDY    75  64  68 SE8       29.84F
BEDFORD        CLOUDY    73  63  70 VRB5      29.82S
BLUE HILL        N/A     71  61  70 E7        29.84F
NORWOOD        CLOUDY    73  61  65 NE6       29.83S
MARSHFIELD     CLOUDY    68  63  83 E7        29.85S
PLYMOUTH       CLOUDY    69  61  75 NE7       29.84S
TAUNTON        CLOUDY    74  61  63 VRB3      29.82S
NEW BEDFORD    CLOUDY    73  63  70 NE8       29.81S
$$

MAZALL-242200-
CAPE COD AND THE ISLANDS

CITY           SKY/WX    TMP DP  RH WIND       PRES   REMARKS
FALMOUTH       CLOUDY    66  63  88 N6        29.83S
HYANNIS        CLOUDY    69  64  84 N9        29.82S
CHATHAM        CLOUDY    68  64  87 NE7       29.83S
PROVINCETOWN   CLOUDY    66  64  94 NE7       29.84S
NANTUCKET      LGT RAIN  67  65  93 N16       29.82R
MARTHAS VNYRD  LGT RAIN  68  65  90 NE8       29.82S
$$

MAZALL-242200-
CENTRAL AND WESTERN MASSACHUSETTS

CITY           SKY/WX    TMP DP  RH WIND       PRES   REMARKS
WORCESTER      PTSUNNY   76  56  49 NW8       29.86S
FITCHBURG      PTSUNNY   79  55  43 N13       29.84S
ORANGE           N/A    N/A N/A N/A MISG      29.85S
SPRINGFIELD    PTSUNNY   81  57  44 N13       29.83S
WESTFIELD      PTSUNNY   78  56  46 N9        29.84S
NORTH ADAMS    MOSUNNY   74  51  44 VRB3      29.88F
PITTSFIELD     MOSUNNY   73  53  49 NE8       29.89S
$$

RIZALL-242200-
RHODE ISLAND

CITY           SKY/WX    TMP DP  RH WIND       PRES   REMARKS
PROVIDENCE     CLOUDY    75  60  59 E8        29.82F
NEWPORT        CLOUDY    75  63  66 NE8       29.82S
BLOCK ISLAND   CLOUDY    70  64  83 E8        29.84R
SMITHFIELD     CLOUDY    73  61  64 E7        29.85S
WESTERLY       CLOUDY    73  66  78 SE12      29.83S
$$

CTZALL-242200-
CONNECTICUT

CITY           SKY/WX    TMP DP  RH WIND       PRES   REMARKS
BRADLEY INTL   PTSUNNY   82  57  42 N8        29.82S
HARTFORD       MOSUNNY   78  55  44 N7        29.82S
BRIDGEPORT     MOSUNNY   80  60  50 NW9       29.83S
DANBURY        MOSUNNY   77  53  43 N10G20    29.88R
GROTON         CLOUDY    72  67  84 SE10      29.82R
NEW HAVEN      PTSUNNY   80  61  52 N5        29.83R
CHESTER        PTSUNNY   79  63  57 N6        29.85R
MERIDEN        PTSUNNY   79  59  50 N8        29.83S
WILLIMANTIC    PTSUNNY   80  59  48 NW7       29.82F
OXFORD         MOSUNNY   75  59  57 NW8       29.88S
$$

MEZ002-015-021-024-NHZ003-005-008-011-012-014-VTZ005-008-242200-
NORTHERN NEW ENGLAND

CITY           SKY/WX    TMP DP  RH WIND       PRES   REMARKS
PORTLAND ME    PTSUNNY   71  62  73 SE7       29.82S
BANGOR ME      MOSUNNY   76  52  43 NW12      29.81S
CONCORD NH     MOSUNNY   78  54  43 NW13      29.83F
MANCHESTER NH  PTSUNNY   81  54  39 NW13G22   29.81F
NASHUA NH      PTSUNNY   80  54  40 N9        29.83S
PORTSMOUTH NH  PTSUNNY   69  60  72 SE9       29.82F
JAFFREY NH     MOSUNNY   76  52  43 VRB7      29.87F
KEENE NH       MOSUNNY   75  52  43 NW8       29.86S
BURLINGTON VT  MOSUNNY   73  50  44 N13       29.91F
MT. WASHINGTON FOG       45  45 100 W28         N/A  VSB 1/8
$$

NYZ052-076-242200-
EASTERN NEW YORK

CITY           SKY/WX    TMP DP  RH WIND       PRES   REMARKS
ALBANY         PTSUNNY   77  56  48 CALM      29.87F
NEW YORK CITY  MOSUNNY   80  53  39 N10       29.84S
$$

ANZALL-242200-
MARINE OBSERVATIONS

STATION/POSITION TIME  TEMP    WIND        PRES    VSBY  WAVE
                       AIR SEA DIR/SP/G                  HT/PER
                 (UTC) (F)     (DEG/KT/KT) (MB)    (MI)  (FT/S)
BOSTON BUOY      NOT AVBL
BUZZARDS BAY     NOT AVBL
NANTUCKET SOUND  NOT AVBL
MASS BAY-STELLWA NOT AVBL
ISLE OF SHOALS   NOT AVBL
S OF BLOCK IS    NOT AVBL
$$

......................KEY.........................
  SKY/WX - SKY CONDITION/PRESENT WEATHER
  TMP    - TEMPERATURE IN FAHRENHEIT
  DWPT   - DEWPOINT IN FAHRENHEIT
  RH     - RELATIVE HUMIDITY IN PERCENT
  WIND   - DIRECTION AND SPEED IN MPH
  PRES   - MEAN SEA LEVEL PRESSURE IN INCHES OF HG
  WCI    - WIND CHILL INDEX
  VSB    - VISIBILITY IN MILES
  HX     - HEAT INDEX
  TC     - TEMPERATURE IN CELSIUS
  VRB    - VARIABLE WIND DIRECTION
  N/A    - NOT AVAILABLE


USA.gov is the U.S. government's official web portal to all federal, state and local government web resources and services.